Location: Newark
(51.3318°N, 0.0053°E)
Time: 08:01:35
(UTC+00:00)

M-CUBED/EXP-1 PRIME - Pass Details

Date: 03 July 2022
Orbit: 422 x 631 km, 101.7° (Epoch: 15 August)

Event Time Altitude Azimuth Distance (km) Brightness Sun altitude
Exits shadow 23:33:27 - 101° (E) 2,147 ? -15.5°
Reaches altitude 10° 23:35:34 10° 76° (ENE) 1,584 ? -15.5°
Maximum altitude 23:37:03 13° 50° (NE) 1,455 ? -15.5°
Drops below altitude 10° 23:38:35 10° 24° (NNE) 1,629 ? -15.6°
Sets 23:41:39 0° 355° (N) 2,561 ? -15.6°
